Goodland, KS

6:05 PM MDT on August 24, 2016 (GMT -0600)
Renner-Goodland Municipal

Weather History for KGLD - October, 2013

Change the Weather History Date:

Saturday, October 12, 2013

  Actual Average Record
Temperature  
Mean Temperature 52 °F 53 °F  
Max Temperature 61 °F 68 °F 94 °F (1975)
Min Temperature 42 °F 39 °F 20 °F (1917)
Degree Days  
Heating Degree Days 13 12  
Month to date heating degree days 103 121  
Since 1 July heating degree days 157 245  
Cooling Degree Days 0 0  
Month to date cooling degree days 0 5  
Year to date cooling degree days 1181 938  
Growing Degree Days 2 (Base 50)    
Moisture  
Dew Point 40 °F    
Average Humidity 65    
Maximum Humidity 86    
Minimum Humidity 44    
Precipitation  
Precipitation 0.01 in 0.05 in 1.09 in (1997)
Month to date precipitation 0.55 0.56  
Year to date precipitation 15.83 17.68  
Snow  
Snow 0.00 in 0.10 in - ()
Month to date snowfall 0.0 0.5  
Since 1 July snowfall 0.0 0.9  
Since 1 September snowfall 0.0 0.9  
Snow Depth 0.00 in    
Sea Level Pressure  
Sea Level Pressure 30.18 in    
Wind  
Wind Speed 7 mph (ESE)    
Max Wind Speed 16 mph    
Max Gust Speed 20 mph    
Visibility 10 miles    
Events Rain    
T = Trace of Precipitation, MM = Missing Value Source: NWS Daily Summary

Daily Weather History Graph

Daily Weather History Graph

Search for Another Location

Airport or City:

Trip Planner

Search our weather history database for the weather conditions in past years. The results will help you decide how hot, cold, wet, or windy it might be!

Date:

Astronomy

Oct. 12, 2013 Rise Set
Actual Time 6:53 AM MDT 6:11 PM MDT
Civil Twilight 6:26 AM MDT 6:38 PM MDT
Nautical Twilight 5:55 AM MDT 7:09 PM MDT
Astronomical Twilight 5:24 AM MDT 7:40 PM MDT
Moon 2:20 PM MDT (10/12) 12:01 AM MDT (10/12)
Length of Visible Light 12h 11m
Length of Day
11h 17m
First Quarter, 59% of the Moon is Illuminated
Oct 12
First Quarter
Oct 18
Full
Oct 26
Last Quarter
Nov 3
New
Nov 9
First Quarter

Hourly Weather History & Observations

Time (MDT) Temp. Windchill Dew Point Humidity Pressure Visibility Wind Dir Wind Speed Gust Speed Precip Events Conditions
12:53 AM 46.9 °F - 44.1 °F 90% 30.04 in 10.0 mi Calm Calm - 0.05 in Rain Light Rain
1:53 AM 46.9 °F - 44.1 °F 90% 30.05 in 10.0 mi NW 6.9 mph - 0.00 in Rain Light Rain
2:53 AM 46.9 °F - 43.0 °F 86% 30.06 in 10.0 mi NNW 11.5 mph - 0.00 in   Overcast
3:53 AM 46.0 °F 41.9 °F 43.0 °F 89% 30.07 in 9.0 mi North 8.1 mph - 0.00 in Rain Light Rain
4:53 AM 46.9 °F - 41.0 °F 80% 30.10 in 10.0 mi Calm Calm - 0.01 in   Overcast
5:53 AM 46.0 °F - 42.1 °F 86% 30.14 in 10.0 mi Calm Calm - N/A   Overcast
6:53 AM 45.0 °F - 39.9 °F 82% 30.17 in 10.0 mi Calm Calm - N/A   Mostly Cloudy
7:53 AM 45.0 °F 43.5 °F 39.9 °F 82% 30.21 in 10.0 mi NW 3.5 mph - N/A   Overcast
8:53 AM 48.0 °F - 39.0 °F 71% 30.23 in 10.0 mi NNW 5.8 mph - N/A   Overcast
9:53 AM 51.1 °F - 39.0 °F 63% 30.23 in 10.0 mi NNE 8.1 mph - N/A   Overcast
10:53 AM 54.0 °F - 37.9 °F 55% 30.23 in 10.0 mi NNE 6.9 mph - N/A   Mostly Cloudy
11:53 AM 55.0 °F - 39.0 °F 55% 30.23 in 10.0 mi East 5.8 mph - N/A   Scattered Clouds
12:53 PM 57.9 °F - 37.9 °F 47% 30.19 in 10.0 mi ESE 8.1 mph - N/A   Mostly Cloudy
1:53 PM 57.9 °F - 37.0 °F 46% 30.17 in 10.0 mi ESE 8.1 mph - N/A   Overcast
2:53 PM 59.0 °F - 37.9 °F 46% 30.16 in 10.0 mi SE 8.1 mph - N/A   Overcast
3:53 PM 60.1 °F - 39.0 °F 46% 30.15 in 10.0 mi South 12.7 mph - N/A   Partly Cloudy
4:53 PM 57.9 °F - 37.9 °F 47% 30.14 in 10.0 mi SE 11.5 mph - N/A   Clear
5:53 PM 54.0 °F - 39.9 °F 59% 30.17 in 10.0 mi SSE 6.9 mph - N/A   Clear
6:53 PM 46.9 °F - 39.9 °F 77% 30.21 in 10.0 mi SSE 5.8 mph - N/A   Clear
7:53 PM 45.0 °F 41.8 °F 39.0 °F 80% 30.24 in 10.0 mi SSE 5.8 mph - N/A   Clear
8:53 PM 43.0 °F 38.8 °F 37.9 °F 82% 30.24 in 10.0 mi SE 6.9 mph - N/A   Clear
9:53 PM 43.0 °F 39.5 °F 37.9 °F 82% 30.25 in 10.0 mi SE 5.8 mph - N/A   Clear
10:53 PM 43.0 °F 38.2 °F 37.0 °F 80% 30.25 in 10.0 mi SE 8.1 mph - N/A   Clear
11:53 PM 44.1 °F 38.1 °F 37.0 °F 76% 30.24 in 10.0 mi SSE 11.5 mph - N/A   Clear